Location: Newark
(52.1752°N, 10.4140°W)
Time: 04:40:46
(UTC+00:00)

N. Korean satellite - Pass Details

Date: 21 November 2019
Orbit: 455 x 507 km, 97.2° (Epoch: 13 December)

Event Time Altitude Azimuth Distance (km) Brightness Sun altitude
Rises 06:48:27 0° 13° (NNE) 2,623 10.2 -12.4°
Reaches altitude 10° 06:50:33 10° 13° (NNE) 1,729 9.3 -12.1°
Maximum altitude 06:54:17 87° 287° (WNW) 509 6.6 -11.6°
Drops below altitude 10° 06:57:57 10° 196° (SSW) 1,694 9.3 -11.1°
Sets 07:00:00 0° 196° (SSW) 2,564 10.3 -10.8°
